This demonstration page uses our WeatherBlox Daily Observations layout. Learn more.

Left ArrowRight Arrow

Hourly Observations for May 3, 2016

Temp ( °F °C ) Dew Point ( °F °C ) Humidity (%) Winds ( mph kmh ) Pressure ( in mb ) Visibility ( mi km ) Precip ( " mm )
12:51 am 00:51 Clear 61 16.1 28 -2.2 29 29 SSE 6 9 29.89 1012 10 16 0.00 0.00
1:51 am 01:51 Clear 61 16.1 28 -2.2 29 29 E 6 9 29.87 1012 10 16 0.00 0.00
2:51 am 02:51 Clear 61 16.1 29 -1.7 30 30 E 8 13 29.87 1012 10 16 0.00 0.00
3:51 am 03:51 Clear 59 15 29 -1.7 32 32 ESE 7 11 29.88 1012 10 16 0.00 0.00
4:51 am 04:51 Clear 53 11.7 29 -1.7 40 40 NNW 6 9 29.91 1013 10 16 0.00 0.00
5:51 am 05:51 Sunny 54 12.2 31 -0.6 42 42 NNW 6 9 29.93 1013 10 16 0.00 0.00
6:51 am 06:51 Sunny 61 16.1 32 0 34 34 NW 5 7 29.93 1014 10 16 0.00 0.00
7:51 am 07:51 Sunny 64 17.8 32 0 30 30 Calm 29.95 1014 10 16 0.00 0.00
8:51 am 08:51 Sunny 72 22.2 32 0 23 23 ESE 10 17 29.94 1014 10 16 0.00 0.00
9:51 am 09:51 Sunny 75 23.9 33 0.6 22 22 ENE 6 9 29.93 1014 10 16 0.00 0.00
10:51 am 10:51 Sunny 77 25 32 0 19 19 undefined N/A 29.93 1013 10 16 0.00 0.00
11:51 am 11:51 Sunny 80 26.7 32 0 17 17 undefined N/A 29.89 1012 10 16 0.00 0.00
12:51 pm 12:51 Sunny 83 28.3 31 -0.6 15 15 ESE 7 11 29.86 1011 10 16 0.00 0.00
1:51 pm 13:51 Sunny 85 29.4 26 -3.3 12 12 VRB 5 7 29.84 1011 10 16 0.00 0.00
2:51 pm 14:51 Sunny 85 29.4 23 -5 10 10 W 8 13 29.82 1010 10 16 0.00 0.00
3:51 pm 15:51 Sunny 85 29.4 27 -2.8 12 12 Calm 29.82 1010 10 16 0.00 0.00
4:51 pm 16:51 Sunny 87 30.6 26 -3.3 11 11 N 7 11 29.82 1010 10 16 0.00 0.00
5:51 pm 17:51 Sunny 85 29.4 25 -3.9 11 11 Calm 29.81 1010 10 16 0.00 0.00
6:51 pm 18:51 Sunny 83 28.3 25 -3.9 12 12 Calm 29.81 1010 10 16 0.00 0.00
7:51 pm 19:51 Clear 78 25.6 25 -3.9 14 14 W 3 6 29.83 1010 10 16 0.00 0.00
8:51 pm 20:51 Clear 71 21.7 24 -4.4 17 17 Calm 29.85 1011 10 16 0.00 0.00
9:51 pm 21:51 Clear 69 20.6 24 -4.4 18 18 SE 7 11 29.87 1011 10 16 0.00 0.00
10:51 pm 22:51 Clear 66 18.9 24 -4.4 20 20 E 9 15 29.88 1012 10 16 0.00 0.00
11:51 pm 23:51 Clear 70 21.1 27 -2.8 20 20 S 12 19 29.89 1012 10 16 0.00 0.00

Powered by AerisWeather